Location: Godziszka
(49.7127°N, 19.0761°E)
Time: 16:41:25
(UTC+01:00)

ISS - Visible Passes

Search period start: 20 November 2017 00:00
Search period end: 30 November 2017 00:00
Orbit: 402 x 407 km, 51.6° (Epoch: 21 November)

Date Brightness Start Highest point End Pass type
(mag) Time Alt. Az. Time Alt. Az. Time Alt. Az.
27 Nov -1.2 17:34:57 10° SSE 17:34:58 10° SSE 17:34:58 10° SSE visible
28 Nov -1.5 18:16:21 10° SSW 18:17:35 19° SSW 18:17:35 19° SSW visible
29 Nov -2.2 17:24:34 10° SSW 17:27:05 21° SE 17:27:28 20° SE visible
29 Nov -0.4 18:59:55 10° WSW 19:00:07 11° WSW 19:00:07 11° WSW visible
